SKX5167 SPJC-SPJL

Flight info

Callsign SKX5167
Flight time 1h 11m
Altitude 35000
Route KULIS UM415 OPKUL
Aircraft A20N/M-SDE2E3FGHIRWXY/LB1

Departure

Time 2026-04-29 18:43
Airport Jorge Chávez International Airport (SPJC)

Arrival

Time 2026-04-29 19:55
Airport Inca Manco Capac International Airport (SPJL)
Time Latitude Longitude Altitude Speed Heading
2026-04-29 18:21 -12.02577 -77.11568 126 ft 0 kts 65°
2026-04-29 18:29 -12.02578 -77.11571 126 ft 2 kts 64°
2026-04-29 18:30 -12.02585 -77.11585 126 ft 2 kts 65°
2026-04-29 18:30 -12.02592 -77.11599 126 ft 2 kts 64°
2026-04-29 18:30 -12.02595 -77.11608 126 ft 1 kts 62°
2026-04-29 18:30 -12.02606 -77.11615 126 ft 2 kts 360°
2026-04-29 18:31 -12.02614 -77.11613 126 ft 0 kts 329°
2026-04-29 18:31 -12.02620 -77.11610 126 ft 0 kts 334°
2026-04-29 18:33 -12.02619 -77.11610 126 ft 0 kts 334°
2026-04-29 18:33 -12.02618 -77.11612 126 ft 1 kts 333°
2026-04-29 18:33 -12.02596 -77.11623 126 ft 6 kts 331°
2026-04-29 18:33 -12.02557 -77.11644 126 ft 6 kts 332°
2026-04-29 18:34 -12.02502 -77.11669 126 ft 10 kts 336°
2026-04-29 18:34 -12.02479 -77.11681 126 ft 11 kts 332°
2026-04-29 18:34 -12.02361 -77.11665 126 ft 12 kts 65°
2026-04-29 18:34 -12.02295 -77.11636 126 ft 11 kts 337°
2026-04-29 18:35 -12.02225 -77.11671 126 ft 11 kts 333°
2026-04-29 18:35 -12.02156 -77.11706 126 ft 10 kts 333°
2026-04-29 18:35 -12.02089 -77.11742 126 ft 10 kts 332°
2026-04-29 18:35 -12.02023 -77.11774 126 ft 11 kts 335°
2026-04-29 18:36 -12.01943 -77.11804 126 ft 12 kts
2026-04-29 18:36 -12.01864 -77.11771 126 ft 12 kts 352°
2026-04-29 18:36 -12.01782 -77.11807 126 ft 13 kts 334°
2026-04-29 18:36 -12.01700 -77.11848 126 ft 13 kts 333°
2026-04-29 18:37 -12.01615 -77.11891 126 ft 13 kts 335°
2026-04-29 18:37 -12.01529 -77.11933 126 ft 13 kts 334°
2026-04-29 18:37 -12.01447 -77.11974 126 ft 12 kts 333°
2026-04-29 18:37 -12.01367 -77.12012 126 ft 12 kts 335°
2026-04-29 18:38 -12.01295 -77.12057 126 ft 11 kts 313°
2026-04-29 18:38 -12.01244 -77.12120 126 ft 11 kts 308°
2026-04-29 18:38 -12.01187 -77.12174 126 ft 11 kts 330°
2026-04-29 18:38 -12.01118 -77.12207 126 ft 10 kts 335°
2026-04-29 18:39 -12.01052 -77.12241 126 ft 10 kts 332°
2026-04-29 18:39 -12.00990 -77.12274 126 ft 10 kts 332°
2026-04-29 18:39 -12.00927 -77.12305 126 ft 9 kts 335°
2026-04-29 18:39 -12.00861 -77.12310 126 ft 9 kts 34°
2026-04-29 18:40 -12.00826 -77.12253 126 ft 8 kts 63°
2026-04-29 18:40 -12.00803 -77.12206 126 ft 6 kts 64°
2026-04-29 18:40 -12.00784 -77.12167 126 ft 7 kts 64°
2026-04-29 18:40 -12.00789 -77.12119 126 ft 8 kts 149°
2026-04-29 18:41 -12.00841 -77.12093 126 ft 0 kts 154°
2026-04-29 18:42 -12.00842 -77.12093 126 ft 0 kts 154°
2026-04-29 18:42 -12.00847 -77.12090 126 ft 1 kts 154°
2026-04-29 18:42 -12.00881 -77.12073 126 ft 19 kts 155°
2026-04-29 18:42 -12.01228 -77.11906 126 ft 89 kts 154°
2026-04-29 18:43 -12.01987 -77.11531 127 ft 148 kts 154°
2026-04-29 18:43 -12.03045 -77.10998 255 ft 182 kts 155°
2026-04-29 18:43 -12.04250 -77.10417 640 ft 197 kts 155°
2026-04-29 18:43 -12.05496 -77.09810 1275 ft 202 kts 155°
2026-04-29 18:44 -12.06824 -77.09158 1686 ft 224 kts 155°
2026-04-29 18:44 -12.08321 -77.08427 2035 ft 249 kts 154°
2026-04-29 18:44 -12.09928 -77.07639 2701 ft 260 kts 154°
2026-04-29 18:44 -12.11563 -77.06836 3495 ft 265 kts 153°
2026-04-29 18:45 -12.13225 -77.06014 4282 ft 269 kts 153°
2026-04-29 18:45 -12.14925 -77.05167 4957 ft 274 kts 153°
2026-04-29 18:45 -12.16659 -77.04308 5598 ft 280 kts 153°
2026-04-29 18:45 -12.18416 -77.03439 6234 ft 284 kts 153°
2026-04-29 18:46 -12.20207 -77.02553 6842 ft 289 kts 153°
2026-04-29 18:46 -12.22041 -77.01646 7481 ft 292 kts 153°
2026-04-29 18:46 -12.23793 -77.00585 8079 ft 295 kts 137°
2026-04-29 18:46 -12.25081 -76.98981 8713 ft 294 kts 117°
2026-04-29 18:47 -12.26000 -76.97130 9224 ft 297 kts 114°
2026-04-29 18:47 -12.26895 -76.95217 9818 ft 300 kts 114°
2026-04-29 18:47 -12.27799 -76.93293 10382 ft 306 kts 114°
2026-04-29 18:47 -12.28753 -76.91271 10679 ft 322 kts 114°
2026-04-29 18:48 -12.29754 -76.89178 11044 ft 334 kts 115°
2026-04-29 18:48 -12.30787 -76.87026 11604 ft 338 kts 115°
2026-04-29 18:48 -12.31820 -76.84880 12062 ft 339 kts 115°
2026-04-29 18:48 -12.32854 -76.82736 12676 ft 340 kts 115°
2026-04-29 18:49 -12.33896 -76.80576 13353 ft 341 kts 115°
2026-04-29 18:49 -12.34947 -76.78388 13814 ft 344 kts 115°
2026-04-29 18:49 -12.36015 -76.76175 14332 ft 346 kts 115°
2026-04-29 18:49 -12.37059 -76.74002 14864 ft 347 kts 115°
2026-04-29 18:50 -12.38135 -76.71761 15464 ft 348 kts 115°
2026-04-29 18:50 -12.39201 -76.69544 16057 ft 349 kts 115°
2026-04-29 18:50 -12.40261 -76.67338 16545 ft 351 kts 115°
2026-04-29 18:50 -12.41349 -76.65076 17112 ft 354 kts 115°
2026-04-29 18:51 -12.42423 -76.62843 17658 ft 356 kts 115°
2026-04-29 18:51 -12.43527 -76.60569 18185 ft 358 kts 115°
2026-04-29 18:51 -12.44642 -76.58281 18618 ft 361 kts 116°
2026-04-29 18:51 -12.45767 -76.55970 19145 ft 364 kts 116°
2026-04-29 18:52 -12.46900 -76.53636 19643 ft 366 kts 116°
2026-04-29 18:52 -12.48034 -76.51302 20142 ft 369 kts 116°
2026-04-29 18:52 -12.49172 -76.48955 20616 ft 371 kts 116°
2026-04-29 18:52 -12.50324 -76.46580 21111 ft 373 kts 116°
2026-04-29 18:53 -12.51467 -76.44221 21635 ft 375 kts 116°
2026-04-29 18:53 -12.52629 -76.41821 22114 ft 378 kts 116°
2026-04-29 18:53 -12.53808 -76.39385 22563 ft 382 kts 116°
2026-04-29 18:53 -12.54979 -76.36967 22987 ft 386 kts 116°
2026-04-29 18:54 -12.56170 -76.34507 23404 ft 389 kts 116°
2026-04-29 18:54 -12.57386 -76.31982 23828 ft 393 kts 116°
2026-04-29 18:54 -12.58597 -76.29467 24213 ft 398 kts 115°
2026-04-29 18:54 -12.59818 -76.26929 24599 ft 402 kts 115°
2026-04-29 18:55 -12.61054 -76.24359 24981 ft 406 kts 115°
2026-04-29 18:55 -12.62320 -76.21734 25373 ft 410 kts 115°
2026-04-29 18:55 -12.63578 -76.19122 25749 ft 414 kts 115°
2026-04-29 18:55 -12.64852 -76.16479 26120 ft 417 kts 115°
2026-04-29 18:56 -12.66142 -76.13803 26503 ft 421 kts 115°
2026-04-29 18:56 -12.67439 -76.11111 26840 ft 425 kts 115°
2026-04-29 18:56 -12.68747 -76.08390 27187 ft 428 kts 115°
2026-04-29 18:56 -12.70067 -76.05647 27531 ft 432 kts 115°
2026-04-29 18:57 -12.71402 -76.02872 27857 ft 436 kts 114°
2026-04-29 18:57 -12.72753 -76.00075 28182 ft 440 kts 115°
2026-04-29 18:57 -12.74225 -75.97310 28534 ft 443 kts 119°
2026-04-29 18:57 -12.75860 -75.94635 28882 ft 447 kts 122°
2026-04-29 18:58 -12.77668 -75.92030 29205 ft 450 kts 125°
2026-04-29 18:58 -12.79539 -75.89454 29518 ft 453 kts 125°
2026-04-29 18:58 -12.81436 -75.86863 29910 ft 454 kts 125°
2026-04-29 18:58 -12.83331 -75.84274 30332 ft 454 kts 125°
2026-04-29 18:59 -12.85220 -75.81684 30755 ft 454 kts 125°
2026-04-29 18:59 -12.87082 -75.79126 31145 ft 453 kts 125°
2026-04-29 18:59 -12.88968 -75.76532 31540 ft 453 kts 124°
2026-04-29 18:59 -12.90864 -75.73920 31915 ft 454 kts 124°
2026-04-29 19:00 -12.92732 -75.71344 32255 ft 455 kts 124°
2026-04-29 19:00 -12.94611 -75.68752 32611 ft 455 kts 124°
2026-04-29 19:00 -12.96508 -75.66135 33023 ft 455 kts 124°
2026-04-29 19:00 -12.98381 -75.63550 33461 ft 454 kts 124°
2026-04-29 19:01 -13.00279 -75.60926 33892 ft 453 kts 124°
2026-04-29 19:01 -13.02138 -75.58360 34285 ft 452 kts 124°
2026-04-29 19:01 -13.04013 -75.55771 34618 ft 452 kts 124°
2026-04-29 19:01 -13.05891 -75.53175 34892 ft 454 kts 124°
2026-04-29 19:02 -13.07763 -75.50588 35191 ft 454 kts 124°
2026-04-29 19:02 -13.09042 -75.48820 35382 ft 455 kts 124°
2026-04-29 19:02 -13.11552 -75.45361 35715 ft 456 kts 124°
2026-04-29 19:02 -13.13455 -75.42748 35835 ft 459 kts 125°
2026-04-29 19:03 -13.17267 -75.37501 35883 ft 460 kts 124°
2026-04-29 19:03 -13.21097 -75.32197 35916 ft 459 kts 124°
2026-04-29 19:04 -13.24947 -75.26837 35912 ft 460 kts 124°
2026-04-29 19:04 -13.28768 -75.21529 35931 ft 462 kts 124°
2026-04-29 19:05 -13.32583 -75.16235 35943 ft 462 kts 124°
2026-04-29 19:05 -13.36372 -75.10970 35917 ft 462 kts 124°
2026-04-29 19:06 -13.40196 -75.05650 35904 ft 463 kts 124°
2026-04-29 19:07 -13.45884 -74.97647 35924 ft 462 kts 122°
2026-04-29 19:07 -13.49120 -74.91975 35901 ft 460 kts 113°
2026-04-29 19:08 -13.51736 -74.86007 35876 ft 458 kts 110°
2026-04-29 19:08 -13.54271 -74.79999 35847 ft 458 kts 110°
2026-04-29 19:09 -13.56802 -74.74042 35846 ft 458 kts 110°
2026-04-29 19:09 -13.59363 -74.68040 35844 ft 458 kts 111°
2026-04-29 19:10 -13.61919 -74.62046 35810 ft 457 kts 110°
2026-04-29 19:10 -13.64462 -74.56076 35803 ft 457 kts 110°
2026-04-29 19:11 -13.66999 -74.50111 35791 ft 457 kts 111°
2026-04-29 19:11 -13.69535 -74.44137 35781 ft 457 kts 110°
2026-04-29 19:12 -13.72086 -74.38139 35775 ft 458 kts 110°
2026-04-29 19:12 -13.74624 -74.32177 35765 ft 457 kts 110°
2026-04-29 19:13 -13.77167 -74.26185 35764 ft 456 kts 110°
2026-04-29 19:13 -13.79709 -74.20194 35758 ft 457 kts 110°
2026-04-29 19:14 -13.82225 -74.14256 35759 ft 456 kts 110°
2026-04-29 19:14 -13.84759 -74.08274 35759 ft 456 kts 110°
2026-04-29 19:15 -13.87290 -74.02291 35761 ft 455 kts 110°
2026-04-29 19:15 -13.89804 -73.96346 35765 ft 455 kts 110°
2026-04-29 19:16 -13.92315 -73.90403 35769 ft 456 kts 110°
2026-04-29 19:16 -13.94844 -73.84416 35763 ft 455 kts 110°
2026-04-29 19:17 -13.97354 -73.78461 35763 ft 455 kts 110°
2026-04-29 19:17 -13.99870 -73.72490 35758 ft 455 kts 110°
2026-04-29 19:18 -14.02382 -73.66519 35756 ft 455 kts 110°
2026-04-29 19:18 -14.04897 -73.60536 35759 ft 456 kts 110°
2026-04-29 19:19 -14.07400 -73.54582 35766 ft 456 kts 110°
2026-04-29 19:19 -14.09930 -73.48563 35777 ft 457 kts 111°
2026-04-29 19:20 -14.12477 -73.42579 35784 ft 456 kts 111°
2026-04-29 19:20 -14.15008 -73.36610 35792 ft 457 kts 111°
2026-04-29 19:21 -14.17534 -73.30591 35796 ft 457 kts 110°
2026-04-29 19:21 -14.20046 -73.24576 35801 ft 456 kts 110°
2026-04-29 19:22 -14.22535 -73.18626 35810 ft 456 kts 111°
2026-04-29 19:22 -14.25035 -73.12645 35814 ft 455 kts 111°
2026-04-29 19:23 -14.27544 -73.06646 35813 ft 455 kts 110°
2026-04-29 19:23 -14.30050 -73.00647 35829 ft 455 kts 110°
2026-04-29 19:24 -14.32545 -72.94668 35822 ft 456 kts 110°
2026-04-29 19:24 -14.35038 -72.88688 35834 ft 455 kts 111°
2026-04-29 19:25 -14.37530 -72.82704 35851 ft 455 kts 111°
2026-04-29 19:25 -14.40024 -72.76715 35874 ft 456 kts 111°
2026-04-29 19:26 -14.42516 -72.70723 35883 ft 456 kts 110°
2026-04-29 19:26 -14.45011 -72.64719 35892 ft 455 kts 110°
2026-04-29 19:27 -14.47504 -72.58716 35912 ft 455 kts 111°
2026-04-29 19:27 -14.49983 -72.52739 35924 ft 455 kts 110°
2026-04-29 19:28 -14.52460 -72.46766 35929 ft 454 kts 110°
2026-04-29 19:28 -14.54941 -72.40770 35928 ft 454 kts 111°
2026-04-29 19:29 -14.57411 -72.34800 35949 ft 454 kts 110°
2026-04-29 19:29 -14.59882 -72.28799 35942 ft 454 kts 110°
2026-04-29 19:30 -14.62352 -72.22804 35958 ft 454 kts 110°
2026-04-29 19:30 -14.64823 -72.16816 35976 ft 454 kts 110°
2026-04-29 19:31 -14.67289 -72.10830 35987 ft 455 kts 110°
2026-04-29 19:31 -14.69759 -72.04838 35993 ft 454 kts 110°
2026-04-29 19:32 -14.72231 -71.98830 36000 ft 455 kts 110°
2026-04-29 19:32 -14.74691 -71.92840 36003 ft 454 kts 110°
2026-04-29 19:33 -14.77148 -71.86852 35984 ft 454 kts 110°
2026-04-29 19:33 -14.79601 -71.80881 35986 ft 453 kts 110°
2026-04-29 19:34 -14.82061 -71.74902 35980 ft 453 kts 110°
2026-04-29 19:34 -14.84523 -71.68911 35973 ft 453 kts 110°
2026-04-29 19:35 -14.86973 -71.62923 35971 ft 453 kts 110°
2026-04-29 19:35 -14.89434 -71.56909 35973 ft 453 kts 110°
2026-04-29 19:36 -14.91886 -71.50911 35971 ft 454 kts 110°
2026-04-29 19:36 -14.94343 -71.44891 35969 ft 454 kts 110°
2026-04-29 19:37 -14.96789 -71.38899 35958 ft 453 kts 110°
2026-04-29 19:37 -14.99228 -71.32910 35947 ft 455 kts 110°
2026-04-29 19:38 -15.01679 -71.26866 35933 ft 455 kts 110°
2026-04-29 19:38 -15.04124 -71.20847 35926 ft 455 kts 110°
2026-04-29 19:39 -15.06574 -71.14821 35919 ft 456 kts 110°
2026-04-29 19:39 -15.09017 -71.08804 35908 ft 456 kts 110°
2026-04-29 19:40 -15.11491 -71.02740 35915 ft 457 kts 111°
2026-04-29 19:40 -15.13967 -70.96716 35845 ft 456 kts 110°
2026-04-29 19:40 -15.15208 -70.93672 35164 ft 461 kts 110°
2026-04-29 19:41 -15.16450 -70.90612 34118 ft 468 kts 110°
2026-04-29 19:41 -15.17699 -70.87528 33209 ft 471 kts 110°
2026-04-29 19:41 -15.18974 -70.84378 32414 ft 473 kts 110°
2026-04-29 19:41 -15.20225 -70.81291 31711 ft 473 kts 110°
2026-04-29 19:42 -15.21508 -70.78123 30987 ft 473 kts 110°
2026-04-29 19:42 -15.21877 -70.77211 30781 ft 473 kts 110°
2026-04-29 19:42 -15.23979 -70.72013 29682 ft 470 kts 110°
2026-04-29 19:42 -15.25232 -70.68913 29186 ft 464 kts 110°
2026-04-29 19:43 -15.26463 -70.65860 28696 ft 459 kts 110°
2026-04-29 19:43 -15.27674 -70.62853 28196 ft 454 kts 110°
2026-04-29 19:43 -15.28880 -70.59856 27672 ft 450 kts 110°
2026-04-29 19:43 -15.30073 -70.56886 27178 ft 445 kts 110°
2026-04-29 19:44 -15.31259 -70.53937 26674 ft 441 kts 111°
2026-04-29 19:44 -15.32433 -70.51019 26167 ft 436 kts 111°
2026-04-29 19:44 -15.33582 -70.48158 25668 ft 432 kts 111°
2026-04-29 19:44 -15.34724 -70.45314 25210 ft 428 kts 111°
2026-04-29 19:45 -15.35873 -70.42456 24647 ft 426 kts 111°
2026-04-29 19:45 -15.37009 -70.39628 24116 ft 424 kts 111°
2026-04-29 19:45 -15.38118 -70.36865 23875 ft 413 kts 112°
2026-04-29 19:45 -15.39212 -70.34146 23806 ft 399 kts 111°
2026-04-29 19:46 -15.40251 -70.31540 23730 ft 385 kts 111°
2026-04-29 19:46 -15.41267 -70.28994 23261 ft 387 kts 112°
2026-04-29 19:46 -15.42295 -70.26412 22567 ft 393 kts 112°
2026-04-29 19:46 -15.43351 -70.23772 21881 ft 398 kts 113°
2026-04-29 19:47 -15.44722 -70.21304 21211 ft 401 kts 128°
2026-04-29 19:47 -15.46566 -70.19086 20563 ft 405 kts 132°
2026-04-29 19:47 -15.48456 -70.16948 19894 ft 408 kts 132°
2026-04-29 19:47 -15.50356 -70.14746 19150 ft 414 kts 131°
2026-04-29 19:48 -15.52259 -70.12472 18399 ft 418 kts 130°
2026-04-29 19:48 -15.53501 -70.10960 17919 ft 420 kts 130°
2026-04-29 19:48 -15.56026 -70.07846 16941 ft 422 kts 130°
2026-04-29 19:48 -15.57889 -70.05536 16265 ft 420 kts 129°
2026-04-29 19:49 -15.59759 -70.03221 15854 ft 411 kts 129°
2026-04-29 19:49 -15.61557 -70.01001 15711 ft 393 kts 130°
2026-04-29 19:49 -15.63219 -69.98888 15695 ft 362 kts 124°
2026-04-29 19:49 -15.64159 -69.96624 15677 ft 330 kts 98°
2026-04-29 19:50 -15.64103 -69.94312 15703 ft 317 kts 75°
2026-04-29 19:50 -15.63199 -69.92304 15715 ft 299 kts 52°
2026-04-29 19:50 -15.61721 -69.90897 15731 ft 290 kts 30°
2026-04-29 19:50 -15.59820 -69.90192 15741 ft 290 kts
2026-04-29 19:51 -15.57865 -69.90391 15753 ft 280 kts 340°
2026-04-29 19:51 -15.56183 -69.91425 15753 ft 280 kts 315°
2026-04-29 19:51 -15.55081 -69.93064 15746 ft 281 kts 294°
2026-04-29 19:51 -15.54318 -69.94929 15710 ft 276 kts 292°
2026-04-29 19:52 -15.53773 -69.96761 15678 ft 262 kts 283°
2026-04-29 19:52 -15.53329 -69.98581 15543 ft 259 kts 288°
2026-04-29 19:52 -15.52736 -70.00353 15234 ft 258 kts 291°
2026-04-29 19:52 -15.52068 -70.02061 14888 ft 253 kts 293°
2026-04-29 19:53 -15.51401 -70.03718 14689 ft 244 kts 293°
2026-04-29 19:53 -15.50771 -70.05316 14261 ft 238 kts 292°
2026-04-29 19:53 -15.50172 -70.06859 13977 ft 224 kts 293°
2026-04-29 19:53 -15.49602 -70.08321 13652 ft 213 kts 292°
2026-04-29 19:54 -15.48542 -70.11029 13086 ft 190 kts 292°
2026-04-29 19:54 -15.48058 -70.12275 12829 ft 187 kts 292°
2026-04-29 19:54 -15.47578 -70.13516 12682 ft 187 kts 292°
2026-04-29 19:55 -15.47097 -70.14745 12600 ft 177 kts 291°
2026-04-29 19:55 -15.46711 -70.15714 12596 ft 101 kts 292°
2026-04-29 19:55 -15.46556 -70.16117 12597 ft 34 kts 292°
2026-04-29 19:55 -15.46474 -70.16331 12597 ft 28 kts 292°
2026-04-29 19:56 -15.46404 -70.16508 12597 ft 24 kts 291°
2026-04-29 19:56 -15.46343 -70.16655 12596 ft 20 kts 291°
2026-04-29 19:56 -15.46299 -70.16780 12596 ft 17 kts 290°
2026-04-29 19:56 -15.46259 -70.16886 12596 ft 14 kts 292°
2026-04-29 19:57 -15.46236 -70.16976 12596 ft 11 kts 282°
2026-04-29 19:57 -15.46209 -70.17000 12596 ft 8 kts 38°
2026-04-29 19:57 -15.46238 -70.16922 12596 ft 9 kts 116°
2026-04-29 19:57 -15.46265 -70.16855 12596 ft 11 kts 112°
2026-04-29 19:58 -15.46302 -70.16763 12596 ft 15 kts 113°
2026-04-29 19:58 -15.46352 -70.16647 12596 ft 19 kts 114°
2026-04-29 19:58 -15.46402 -70.16513 12597 ft 19 kts 110°
2026-04-29 19:58 -15.46449 -70.16386 12597 ft 18 kts 111°
2026-04-29 19:59 -15.46497 -70.16268 12597 ft 17 kts 113°
2026-04-29 19:59 -15.46540 -70.16157 12597 ft 15 kts 112°
2026-04-29 19:59 -15.46580 -70.16056 12598 ft 14 kts 112°
2026-04-29 19:59 -15.46619 -70.15961 12598 ft 13 kts 112°
2026-04-29 20:00 -15.46655 -70.15873 12598 ft 12 kts 114°
2026-04-29 20:00 -15.46685 -70.15788 12597 ft 12 kts 110°
2026-04-29 20:00 -15.46720 -70.15700 12596 ft 13 kts 113°
2026-04-29 20:00 -15.46785 -70.15648 12596 ft 12 kts 188°
2026-04-29 20:01 -15.46864 -70.15678 12596 ft 11 kts 202°
2026-04-29 20:01 -15.46936 -70.15692 12596 ft 10 kts 169°
2026-04-29 20:01 -15.46969 -70.15685 12596 ft 0 kts 166°